Theta_e
345 346 346 347 347 347 348 347 347 347 347 347 348 348 348 349 349 349 348 347 347 348 348 347 348 347 346 346 345 346 346 346 346 347 347 347 348 348 348 348 348 348 349 347 343 339 336 333 330 328 327 324 322 321 321 321 321 321 321 322 323 322 322 322 321 321 322 323 327 331 333 333 334 334
343 344 344 346 346 347 348 347 347 348 347 347 347 348 348 349 349 350 350 348 347 347 347 347 347 347 346 346 345 345 345 345 346 347 348 348 348 349 349 349 349 348 348 349 348 344 341 337 335 332 332 330 327 323 321 320 320 320 319 319 319 320 320 320 320 321 325 327 329 331 332 333 334 334
341 342 344 344 345 346 347 347 347 348 347 346 346 347 348 348 349 349 349 349 348 347 348 347 347 347 346 347 346 345 345 345 345 346 348 348 348 348 349 350 349 350 348 348 349 349 346 342 338 335 334 333 331 328 325 323 322 321 320 319 319 319 319 320 321 323 326 329 331 332 333 333 334 334
338 339 341 341 341 343 344 344 345 346 346 346 346 346 347 347 348 349 349 349 348 347 347 347 347 347 347 346 347 346 346 345 345 345 346 348 349 348 349 349 350 350 350 349 349 350 349 346 342 339 336 335 333 332 329 327 324 323 322 322 322 321 322 323 324 326 328 330 332 333 334 335 334 334
333 334 335 336 336 339 339 340 342 344 345 346 346 346 347 347 347 348 349 349 348 347 348 348 348 348 348 346 346 346 346 346 346 346 346 346 347 347 348 349 349 350 350 351 350 350 351 351 348 346 343 341 338 337 335 331 329 327 326 325 325 324 325 326 327 328 330 331 333 334 335 336 336 336
329 328 329 329 331 334 335 336 338 342 344 345 345 346 346 346 347 347 348 349 348 347 347 348 348 348 348 347 346 346 346 346 347 347 346 346 345 345 346 347 348 348 350 351 350 351 351 352 352 351 350 347 344 343 341 337 334 332 332 331 331 330 330 330 331 332 333 334 335 336 337 337 337 337
328 327 326 325 326 328 331 332 335 339 343 343 344 345 345 346 346 346 347 348 348 348 347 346 347 348 347 347 347 347 346 346 346 347 347 347 345 345 345 346 346 347 349 350 351 351 351 352 352 352 352 351 348 347 346 343 341 341 341 340 339 338 336 336 336 337 338 339 339 339 339 339 339 338
328 327 326 325 325 325 326 328 332 336 339 341 342 343 344 345 345 346 346 347 347 347 347 346 347 347 347 348 347 347 347 347 346 346 347 347 346 345 345 346 346 347 348 349 350 351 352 352 352 351 351 351 350 349 348 347 345 345 345 345 344 343 342 341 341 341 342 342 343 342 342 341 340 340
327 327 326 325 325 325 325 327 330 333 336 338 339 339 341 342 343 344 345 346 346 347 347 347 347 347 347 348 348 347 347 347 346 346 346 347 347 347 346 346 346 346 347 348 348 349 350 351 351 350 349 350 350 350 350 350 349 347 347 347 346 346 345 344 344 344 344 345 345 345 344 344 344 343
327 327 326 325 324 324 325 328 330 333 335 337 337 337 338 340 341 343 344 345 345 346 346 347 347 347 347 348 348 347 347 347 347 346 346 347 348 348 348 347 347 347 347 347 347 348 349 349 349 349 349 349 350 350 351 352 351 350 350 348 347 347 346 347 346 346 346 346 346 346 346 346 346 346
327 327 326 326 325 324 325 328 332 334 336 337 337 337 338 340 341 342 344 345 345 345 345 346 346 347 347 347 347 347 347 348 348 348 347 348 348 348 348 347 347 347 347 347 347 348 348 348 347 348 348 349 349 350 351 352 352 352 352 351 349 347 346 346 346 347 346 346 346 346 346 347 347 347
327 327 326 327 326 326 327 330 333 335 336 337 336 337 338 340 340 341 342 343 344 344 344 344 346 346 346 346 346 346 347 347 347 348 348 347 347 347 348 347 347 347 347 347 347 348 347 347 347 347 348 349 350 349 350 351 352 351 352 352 351 349 347 346 346 346 346 347 346 346 346 346 346 346
328 328 328 328 328 329 330 331 332 333 335 335 335 336 337 338 340 341 341 342 344 344 343 343 345 345 346 345 345 346 346 346 346 347 347 347 346 347 347 348 348 348 347 347 348 347 347 347 347 347 348 349 350 350 350 350 351 351 352 352 352 351 349 348 347 346 346 345 346 346 346 346 346 346
329 329 329 330 330 331 331 331 332 333 334 334 334 335 335 336 338 340 340 341 344 343 343 343 343 344 344 344 344 345 345 346 346 347 347 347 346 346 347 347 348 348 348 348 348 348 348 349 349 349 348 349 350 350 350 350 350 350 351 351 351 351 350 349 348 347 346 345 345 346 346 345 346 346
330 330 330 330 330 330 331 331 332 332 333 333 334 334 334 335 337 338 339 340 341 341 342 344 343 343 344 344 344 344 345 345 346 346 346 346 345 346 346 347 347 347 347 347 347 347 347 348 349 348 347 348 349 350 350 349 350 350 350 350 350 350 350 349 349 349 348 347 346 346 346 345 346 346
329 329 329 329 329 329 330 332 331 331 332 333 334 334 334 335 337 338 339 339 340 340 341 342 343 343 344 344 344 344 344 344 344 345 345 345 345 345 345 345 345 346 345 346 346 346 347 348 349 349 348 347 348 349 350 350 350 350 350 350 349 349 350 350 350 350 350 349 348 347 346 346 346 346
327 327 326 325 325 325 327 329 329 330 331 332 332 333 335 336 337 338 339 339 339 340 340 341 342 342 343 343 343 344 344 344 344 345 345 345 346 346 345 344 343 343 343 344 344 345 346 347 348 348 348 348 348 348 349 349 349 350 350 349 348 348 348 348 348 349 349 349 349 348 348 347 347 347
324 324 324 324 323 322 324 327 328 329 329 330 330 332 333 335 336 337 337 338 339 339 338 340 340 341 342 343 343 344 344 345 345 344 344 344 345 345 346 345 344 344 344 344 345 346 346 346 347 347 346 346 346 347 348 348 348 348 348 348 347 346 345 346 346 347 347 347 348 348 347 347 347 347
323 323 323 322 322 322 324 328 329 329 329 329 329 330 332 333 334 335 336 337 338 338 338 338 340 341 341 342 342 343 343 344 345 344 344 344 344 344 344 344 345 345 345 346 346 346 345 345 346 346 345 346 347 346 346 347 346 346 346 346 345 345 345 345 346 347 347 347 347 347 346 346 346 347
320 320 320 320 321 322 324 326 327 327 328 328 328 329 329 330 331 332 334 335 337 338 338 338 339 339 340 340 341 341 341 342 342 343 343 344 344 344 344 344 344 344 345 346 347 348 347 346 347 346 345 347 348 346 345 345 345 344 345 345 345 345 345 345 345 346 347 347 347 347 346 346 346 346
319 319 319 320 321 322 322 323 323 324 325 326 326 326 326 326 328 329 330 332 334 336 337 337 338 338 339 339 338 337 337 337 338 340 341 342 343 344 344 344 343 343 344 345 347 348 348 347 347 347 346 346 347 345 344 345 344 344 344 346 346 345 344 344 345 345 346 346 346 347 346 346 346 346
320 320 320 321 321 321 322 322 323 324 324 325 325 324 323 323 324 325 326 328 330 333 334 335 335 336 336 336 335 333 332 332 333 335 337 339 342 343 343 343 343 343 343 344 345 346 346 346 347 348 346 346 346 345 344 343 343 343 344 345 345 344 343 343 344 344 345 346 346 346 346 346 346 346
319 320 320 320 320 321 322 323 324 325 325 325 325 325 325 324 324 324 324 326 327 328 330 331 331 332 332 332 332 331 330 330 330 332 334 336 339 341 341 343 344 343 343 343 343 344 344 344 345 346 346 346 345 344 342 342 343 344 344 344 343 342 342 344 345 346 347 346 345 344 344 343 344 344
317 317 317 318 319 321 322 322 324 325 326 326 326 325 325 325 325 325 324 325 326 327 328 328 328 328 329 329 329 329 329 329 329 330 332 334 337 339 340 341 343 343 343 342 343 343 343 343 343 344 345 345 345 344 342 343 344 344 343 343 342 342 344 345 346 346 346 345 344 342 342 341 341 341
315 315 316 316 318 320 320 321 323 324 324 326 326 325 326 326 326 326 326 326 327 326 326 327 328 328 328 328 328 329 329 329 328 328 331 334 336 338 338 339 341 341 341 341 343 343 343 343 343 344 344 345 345 344 344 344 344 343 342 341 341 342 343 343 344 344 344 343 343 343 343 343 343 343
314 315 315 316 318 319 320 320 321 322 323 325 325 325 326 327 327 327 327 328 328 328 327 328 328 330 330 330 330 330 330 330 330 331 332 335 336 337 337 338 339 339 339 340 342 343 343 343 342 343 344 344 345 345 344 344 343 341 340 340 341 342 343 344 344 343 343 342 344 344 346 347 347 347
313 314 315 316 316 318 319 319 320 321 322 323 323 324 324 326 327 326 327 328 328 328 328 328 329 330 332 332 333 332 333 332 333 334 335 336 337 337 337 338 338 337 338 340 342 343 343 343 343 343 344 344 344 344 343 343 343 341 340 340 342 343 344 344 343 343 342 342 343 344 344 345 346 347
312 312 313 314 315 316 317 317 318 319 320 321 322 322 322 324 325 326 326 328 328 327 327 327 329 330 331 332 332 333 334 334 333 333 334 336 336 336 336 337 337 337 338 340 342 342 341 342 342 343 343 344 344 344 344 343 342 342 341 342 342 342 342 342 342 341 341 342 342 342 343 343 344 345
311 311 311 313 314 314 315 316 317 317 317 318 319 320 321 322 323 324 324 325 326 326 326 326 327 328 329 330 331 332 334 334 334 334 334 335 336 335 334 335 336 337 339 340 341 341 341 341 341 342 343 343 343 343 344 343 343 342 343 343 343 342 342 342 341 341 341 341 341 342 342 342 342 343
310 310 311 311 312 311 312 313 313 313 314 315 316 317 318 319 319 320 321 322 324 324 325 324 324 325 327 328 329 331 332 332 332 333 334 335 336 335 334 334 335 337 338 339 339 340 340 340 341 341 342 342 342 342 342 343 343 343 343 343 343 342 341 341 341 341 342 342 341 342 342 341 341 342
308 309 309 309 309 308 307 308 309 309 310 311 312 312 313 314 314 315 316 318 320 321 322 322 323 324 325 326 327 328 329 329 330 332 333 334 335 335 335 335 336 336 337 337 337 338 339 340 340 341 342 342 342 342 342 342 342 343 342 342 342 343 342 342 342 343 342 343 343 343 342 342 341 341
306 307 308 308 307 306 305 305 306 306 305 305 306 307 308 309 311 312 313 315 316 317 318 320 321 322 324 324 325 326 326 327 327 329 330 331 332 334 335 335 335 335 335 336 336 337 338 339 339 341 341 342 342 342 342 342 342 342 342 341 342 342 342 341 342 341 342 343 343 343 342 342 342 342
304 305 306 306 305 305 304 304 304 303 301 301 302 303 303 304 306 308 310 311 312 313 315 317 318 319 320 322 323 324 324 324 325 326 327 327 328 330 332 333 334 333 334 334 335 335 336 337 338 339 340 341 341 341 342 341 341 341 341 341 342 341 341 341 341 341 341 342 342 342 342 342 342 342
302 302 302 302 302 302 302 302 302 301 300 299 300 300 300 300 301 301 303 304 305 308 310 312 314 315 316 318 320 321 322 322 323 324 324 325 325 326 327 329 330 331 331 332 333 334 335 336 336 337 338 339 339 340 340 340 340 340 340 340 341 340 341 342 342 342 342 342 342 342 341 341 341 341
302 302 301 301 301 301 301 300 300 299 299 299 299 299 299 299 299 299 299 299 300 302 305 307 309 311 313 315 316 318 319 320 321 321 322 323 324 324 324 324 326 327 328 329 331 332 333 334 335 335 336 336 337 338 338 338 339 339 338 339 339 340 340 341 341 341 341 341 341 341 340 340 339 339
302 302 302 301 301 301 301 300 299 298 299 300 300 300 299 299 299 299 299 298 299 299 300 302 304 307 309 311 312 314 315 317 318 319 320 321 322 322 322 323 323 324 324 325 326 328 330 331 332 333 333 334 334 335 336 336 336 337 337 338 339 340 340 340 340 340 340 340 340 341 341 340 338 338
302 302 302 302 301 301 302 301 300 299 299 300 300 300 300 300 300 299 298 298 298 298 299 300 302 304 306 308 310 311 312 314 315 316 317 318 319 320 321 321 322 322 322 323 323 324 325 326 328 329 330 331 331 332 333 334 334 335 335 336 337 339 339 339 340 340 340 340 340 341 341 341 339 338
302 302 302 302 302 301 301 301 301 300 300 300 300 299 300 300 300 299 299 298 298 298 298 299 301 302 303 305 307 309 310 311 312 313 314 315 316 317 317 318 319 320 321 321 321 321 321 322 323 324 325 325 326 327 329 331 333 333 333 333 334 336 336 337 338 338 339 339 339 340 340 340 340 340
302 302 302 302 302 301 301 301 301 301 301 300 300 299 299 300 300 299 299 298 298 298 298 298 300 302 303 303 305 306 307 308 309 310 311 312 314 314 314 316 317 318 319 319 320 320 320 320 320 321 321 322 323 324 325 326 329 330 331 331 331 332 334 334 335 336 337 338 338 339 339 339 339 339
303 302 302 302 302 301 301 301 301 301 301 300 300 299 299 300 300 299 299 299 298 297 297 297 298 300 302 303 304 304 305 306 306 306 307 309 310 311 312 313 314 315 316 317 317 317 318 318 318 318 318 319 321 322 323 324 325 327 328 329 329 331 331 331 333 334 336 337 338 338 339 338 338 339
303 302 302 302 302 301 301 301 301 300 300 300 300 300 299 300 300 299 299 299 298 298 297 297 297 298 301 303 304 304 304 305 305 305 305 305 306 308 309 311 312 313 314 315 315 315 316 316 317 317 318 319 320 321 322 323 324 324 325 326 327 328 328 329 330 332 333 335 336 338 338 338 339 338
303 303 302 302 302 302 302 301 301 301 300 300 300 300 300 300 300 300 299 299 299 298 297 297 297 297 298 301 303 304 304 305 305 305 305 304 304 305 306 308 310 311 311 312 313 313 315 315 316 316 317 318 319 320 321 321 321 321 322 323 324 325 326 327 328 329 331 332 334 335 337 338 338 339
303 303 302 302 302 302 302 301 301 301 301 300 300 300 300 300 300 300 299 299 299 298 298 297 297 297 297 298 301 303 304 304 305 306 305 305 305 305 306 307 308 309 309 310 311 312 313 314 314 315 316 317 318 319 320 319 318 318 320 321 322 323 325 326 327 328 329 330 331 332 334 335 337 338
303 302 302 302 302 302 301 301 301 301 301 300 300 300 300 300 300 300 300 299 299 299 298 297 297 297 297 297 298 301 303 304 304 305 306 305 305 305 305 306 307 307 308 308 309 310 311 311 312 313 314 316 317 317 318 318 317 317 318 319 320 321 323 324 325 326 327 328 329 330 331 333 334 336
302 302 302 302 302 301 301 301 301 301 300 300 300 300 300 300 300 300 300 299 299 299 298 298 297 297 297 297 297 299 301 303 304 304 305 305 305 305 305 305 306 307 307 307 308 309 310 310 310 312 313 315 316 316 316 316 315 316 317 318 318 319 320 322 323 324 325 326 327 328 329 330 332 333
Wind_Speed
11 11 11 11 10 10 12 13 13 12 14 14 14 14 14 15 18 20 22 22 21 20 21 20 17 15 16 24 32 34 33 33 33 34 35 34 31 28 25 22 20 18 17 18 21 24 25 26 26 27 27 28 29 30 30 30 30 30 29 29 28 28 27 26 25 24 23 23 23 22 22 21 21 21
12 11 10 10 11 11 12 13 12 12 14 14 13 15 15 16 19 21 22 22 20 18 20 21 19 16 14 17 25 30 31 30 30 32 34 35 34 32 30 28 24 21 18 17 19 21 24 25 25 26 26 26 26 27 27 27 28 28 28 27 27 27 27 27 26 25 24 23 23 23 23 23 23 22
11 11 10 10 10 10 11 12 11 12 13 14 14 15 16 17 18 20 21 23 22 18 18 20 20 19 16 14 18 23 28 30 30 30 32 34 34 33 33 32 30 27 23 19 18 20 22 24 25 25 25 25 25 25 25 25 26 26 26 26 26 26 26 26 26 25 25 25 24 24 24 24 24 24
10 10 9 10 11 11 11 11 11 11 13 14 13 14 16 17 17 18 20 23 25 21 18 20 21 20 19 18 17 19 23 27 29 30 30 32 33 34 34 33 33 32 30 25 21 19 20 22 23 24 24 25 25 26 26 26 26 26 26 26 26 26 26 26 26 26 26 26 26 26 25 25 25 25
10 10 9 9 10 11 11 11 10 10 12 13 13 13 14 14 14 16 18 20 23 22 19 19 20 20 20 21 21 20 20 22 25 27 29 30 32 33 34 34 34 34 33 31 27 24 22 22 23 23 23 24 25 26 26 27 27 27 27 28 28 28 28 28 28 28 27 27 27 27 26 26 26 26
12 12 11 10 10 10 11 11 11 12 11 11 11 12 12 12 13 15 17 18 21 22 20 20 20 20 20 22 22 22 21 21 22 25 27 30 31 32 33 34 35 35 34 34 32 29 27 26 26 26 26 26 26 26 26 26 27 27 27 28 28 29 29 29 29 29 29 28 28 28 27 27 27 26
13 13 13 12 11 11 11 11 10 12 12 10 11 11 11 12 13 15 16 18 20 23 22 20 21 21 21 22 22 20 20 20 22 23 27 30 31 32 32 32 33 35 35 34 34 33 31 29 29 29 30 30 29 29 27 26 26 26 27 27 27 28 28 28 28 28 28 28 28 28 27 27 27 27
13 13 14 14 13 12 12 11 9 9 11 11 12 12 11 12 12 13 15 17 19 21 22 21 21 21 21 21 21 20 20 21 22 23 25 29 32 33 33 32 31 32 32 33 34 35 34 34 33 32 32 32 31 31 30 29 28 27 27 27 27 27 27 27 27 27 27 27 27 26 26 26 27 27
13 13 14 14 14 13 12 12 10 9 9 11 12 12 12 12 13 13 13 15 17 20 22 22 21 20 20 21 21 20 20 21 23 24 24 26 30 33 34 34 32 31 32 32 34 35 36 35 35 34 33 32 32 32 31 30 30 29 29 29 29 29 28 28 28 28 28 27 27 26 26 26 26 26
14 14 14 14 14 13 13 12 12 11 10 12 13 13 12 12 13 14 13 14 16 18 21 22 21 20 20 20 21 21 19 19 21 23 24 24 26 29 31 32 32 33 33 34 34 35 36 36 36 36 34 33 32 32 31 30 30 29 29 30 31 31 31 30 30 29 29 29 28 28 27 27 26 26
14 14 14 14 14 13 12 12 13 14 13 13 14 14 13 13 13 14 14 14 15 17 19 20 20 20 19 19 20 20 19 19 20 22 23 24 25 26 28 29 29 30 32 33 34 35 36 36 35 35 35 34 32 32 31 31 31 30 30 30 31 32 33 33 32 32 32 31 31 30 29 29 28 27
14 14 14 14 14 13 12 12 13 14 15 15 15 14 14 13 14 15 15 15 15 16 18 19 19 19 19 20 20 19 19 21 24 24 24 24 25 26 27 28 27 28 29 31 32 33 34 35 34 33 34 34 33 31 31 32 33 32 32 32 32 33 33 34 34 34 34 33 33 32 32 31 30 29
14 14 14 14 13 12 12 12 13 14 14 15 16 15 14 14 14 15 15 15 16 17 17 17 17 18 19 20 20 20 21 22 24 25 24 25 26 25 26 27 26 26 27 28 29 30 31 33 32 31 32 32 32 32 32 32 33 33 33 34 34 34 34 35 35 35 35 35 35 35 34 33 32 32
14 13 14 14 14 13 13 13 13 13 14 14 14 14 14 14 14 14 14 14 15 16 18 18 18 19 20 21 22 22 21 20 21 22 23 24 25 25 27 28 27 26 26 27 28 28 29 30 32 32 32 31 31 32 32 31 31 31 32 33 34 34 34 34 35 35 35 36 36 36 36 36 35 34
15 15 14 15 15 15 14 14 14 14 14 13 12 12 13 14 14 14 15 15 14 15 16 18 19 20 22 22 21 21 21 20 21 22 22 23 23 24 27 30 30 28 27 27 28 28 28 30 33 35 34 33 33 33 32 30 29 29 29 30 31 32 33 33 33 33 34 35 37 37 37 37 37 36
16 16 15 15 15 15 14 14 15 15 14 13 11 10 11 12 12 13 14 15 16 15 15 16 18 20 22 23 22 20 20 20 20 21 22 23 24 25 27 29 30 29 27 27 28 29 29 29 32 34 33 33 33 34 33 31 30 30 30 30 30 31 32 32 33 33 34 34 36 37 37 38 38 37
15 16 17 16 16 15 15 15 17 17 15 13 12 11 11 11 11 12 13 14 15 15 15 15 16 17 19 21 22 21 20 20 20 21 22 24 26 27 28 29 29 28 26 26 28 29 29 29 31 33 33 32 33 35 35 34 34 33 33 32 33 33 34 34 35 35 35 35 36 36 36 36 37 38
18 18 19 19 18 16 14 16 18 19 19 17 14 13 12 12 11 12 12 12 13 14 14 15 16 16 16 17 19 19 19 18 19 20 22 25 26 26 26 26 27 26 25 25 28 31 30 29 30 33 34 33 34 35 35 35 35 35 35 34 34 35 35 35 35 36 36 36 35 34 34 34 35 36
22 21 21 21 19 15 12 14 18 20 21 20 18 16 15 14 13 12 11 12 12 12 13 14 14 15 14 14 16 15 14 15 17 18 21 23 23 23 24 25 26 27 26 25 28 31 32 31 31 32 33 33 33 33 33 33 34 34 35 35 34 34 34 33 33 34 34 34 33 32 32 31 32 33
21 20 19 18 17 15 13 15 18 20 22 22 21 20 19 17 16 13 12 12 12 12 13 13 13 14 13 13 14 13 12 13 14 16 19 21 21 22 24 26 27 27 27 27 29 31 32 32 32 33 33 32 32 32 32 32 33 33 34 34 34 33 34 33 33 33 33 34 34 33 32 32 31 30
14 14 13 11 11 14 16 19 21 20 21 22 23 24 23 21 19 16 14 14 13 13 14 14 14 14 14 13 13 12 13 13 12 13 16 17 18 22 25 27 27 27 27 27 28 29 32 33 32 33 35 34 33 33 33 33 33 33 33 33 32 32 32 32 33 33 34 34 34 34 33 32 31 30
10 8 7 8 11 13 15 18 20 19 18 19 20 21 22 22 21 19 17 17 16 15 15 15 15 15 15 15 15 14 14 13 13 13 14 13 15 18 21 24 26 26 26 25 24 26 30 32 33 33 35 36 36 35 34 34 33 33 33 33 32 31 29 29 30 31 32 33 33 33 33 32 32 31
11 9 7 9 11 12 13 15 15 15 15 15 15 17 18 20 21 19 18 18 18 18 17 17 17 17 17 17 17 16 15 14 13 14 14 14 14 15 17 19 21 24 26 24 22 24 28 31 33 33 33 34 35 34 34 33 32 32 32 32 31 30 29 28 28 28 29 30 31 32 32 32 33 33
13 12 11 11 10 10 12 12 10 9 10 10 13 16 17 17 20 21 18 17 18 20 19 19 18 18 18 17 17 16 15 15 15 15 15 14 13 14 15 16 18 22 25 23 22 25 26 27 29 29 28 29 31 31 32 32 30 29 29 29 29 28 27 27 27 28 29 30 31 31 32 33 35 36
13 15 14 12 9 9 12 13 12 11 10 9 12 16 15 15 18 20 19 17 17 19 19 19 18 17 17 17 15 14 14 14 14 15 16 14 13 14 17 17 19 21 22 20 22 25 26 26 25 24 24 25 27 28 29 29 29 28 27 27 26 26 26 27 27 28 29 30 30 30 31 32 34 35
13 15 15 14 12 12 13 14 14 15 14 12 14 15 14 14 15 17 17 17 17 17 16 15 13 12 12 13 13 13 12 13 13 14 15 15 14 14 15 17 19 21 21 20 20 21 24 25 25 26 26 26 26 27 27 28 28 28 27 27 27 27 27 28 28 28 29 29 29 29 29 29 31 32
15 15 14 14 13 13 14 14 15 14 14 13 13 13 12 13 14 15 16 17 16 14 12 11 9 7 7 7 8 9 10 11 13 13 14 14 15 14 15 15 16 18 20 21 21 21 22 22 23 25 26 25 26 28 29 29 28 28 28 28 28 28 28 29 30 30 30 30 30 31 31 31 31 31
14 14 13 13 12 11 11 11 11 11 11 10 10 10 10 10 11 12 12 13 13 12 11 10 8 7 6 5 5 6 6 8 12 14 14 14 15 15 15 14 14 16 18 18 18 19 21 21 21 23 24 24 26 28 29 28 28 28 28 29 28 28 29 29 30 31 31 31 31 32 33 33 33 32
12 12 11 11 10 10 10 9 8 9 10 10 10 10 10 10 9 9 9 9 9 9 8 7 8 8 8 8 7 5 4 6 11 14 14 14 15 15 15 14 15 16 17 14 13 15 17 19 20 21 21 22 24 26 26 27 27 27 28 29 29 28 27 28 30 31 31 32 32 32 32 32 32 33
11 10 10 10 11 12 12 11 11 12 11 11 11 11 11 11 12 11 11 10 9 8 7 6 6 6 7 7 8 9 10 12 13 13 13 13 14 14 14 14 15 16 16 13 12 12 14 16 17 18 19 20 21 23 24 24 25 26 27 28 29 28 26 26 27 28 29 30 30 30 31 31 31 32
12 10 10 10 12 14 15 15 15 15 15 14 14 14 14 14 15 15 14 12 10 9 8 8 8 7 7 7 7 8 10 11 10 10 10 11 11 13 13 14 15 15 13 11 9 10 12 14 15 15 15 17 18 20 20 20 22 24 25 25 26 28 27 26 25 26 26 27 28 28 29 29 31 31
13 11 10 11 13 15 17 18 17 18 20 20 19 19 19 17 16 14 12 11 11 11 10 8 8 8 8 8 7 6 6 5 3 5 6 5 5 6 8 10 11 11 10 9 7 8 10 13 15 14 13 14 16 18 18 19 21 24 25 25 26 27 27 27 28 28 27 27 29 30 30 30 31 32
16 15 14 15 16 17 18 19 20 22 23 24 23 23 23 22 20 17 15 15 15 15 13 11 10 9 9 8 8 7 7 6 6 5 4 3 4 3 2 4 6 7 7 6 5 6 8 10 12 13 13 13 15 16 18 20 22 23 24 25 25 26 26 26 26 26 25 26 28 30 31 31 31 31
22 23 23 23 23 23 21 21 21 23 25 26 26 26 27 26 25 24 22 21 19 18 16 15 14 13 11 10 9 9 8 7 6 6 6 6 7 7 6 4 3 5 6 5 5 5 6 9 10 11 10 11 13 15 16 19 20 20 21 21 21 22 22 22 21 21 22 23 25 26 28 29 29 29
27 28 29 28 28 29 28 25 23 21 23 27 28 28 28 29 29 28 26 24 22 20 18 18 17 17 15 13 12 11 11 9 7 5 5 6 6 8 10 11 8 7 7 7 7 6 6 8 10 10 9 9 10 12 12 13 14 15 16 16 16 16 18 18 18 19 20 21 22 24 26 29 29 28
28 28 29 29 28 29 30 29 24 20 22 26 28 28 29 31 31 31 28 25 23 21 20 19 18 18 17 16 14 12 11 11 9 8 7 6 6 8 9 10 10 9 9 8 8 8 7 8 8 10 10 9 9 9 8 8 8 10 11 12 12 13 14 15 16 17 19 20 21 23 25 29 30 29
27 26 26 27 27 26 27 28 26 22 22 24 26 27 29 31 31 31 29 25 23 22 21 20 19 18 18 17 15 14 13 12 11 10 9 8 8 8 8 9 9 10 9 9 9 9 9 9 8 8 10 11 11 12 12 10 8 7 9 11 12 12 14 15 16 17 18 19 20 21 23 27 30 29
26 25 24 25 25 24 24 25 25 24 23 23 25 26 28 29 30 30 29 27 25 24 22 20 18 18 18 17 16 16 15 15 13 12 12 10 10 11 11 10 10 10 9 8 7 8 9 10 9 9 10 12 13 15 18 16 12 8 8 12 14 14 14 16 17 18 19 20 21 22 23 25 27 27
23 24 24 23 22 22 22 22 23 23 23 23 24 25 27 28 29 29 30 29 27 25 23 21 19 17 17 17 17 16 16 16 16 15 15 13 11 12 13 13 12 10 9 8 8 9 9 9 9 10 12 13 13 15 19 21 20 16 15 16 16 16 16 16 16 17 19 19 20 22 23 25 26 26
20 21 21 20 20 21 21 20 20 21 21 22 22 23 25 27 29 30 31 30 29 27 25 23 20 17 16 16 16 16 15 15 16 16 16 15 13 13 14 14 14 13 11 11 11 12 11 10 10 12 13 13 14 16 18 20 21 21 19 17 16 15 16 16 16 17 18 18 18 19 21 22 25 26
18 18 18 17 17 20 21 21 20 20 21 21 20 21 22 25 28 30 31 31 30 28 26 24 22 19 16 15 16 16 16 15 15 16 16 15 14 14 14 14 15 15 15 14 14 14 13 12 11 11 12 12 13 14 15 15 16 18 18 17 16 15 15 16 17 18 19 20 20 20 20 21 22 24
14 15 15 15 16 18 20 20 19 19 21 21 20 20 22 24 27 28 30 30 30 29 27 25 24 21 18 15 14 15 16 16 15 15 15 16 16 16 15 15 16 17 18 18 17 16 15 14 13 12 11 10 10 10 10 11 14 16 18 18 18 17 17 17 16 17 20 21 21 21 21 20 20 22
12 12 13 14 15 17 19 18 17 18 21 21 21 21 23 25 27 29 30 31 31 30 29 27 24 22 20 16 13 13 14 16 15 14 14 15 17 17 17 17 17 17 18 19 19 17 15 14 13 11 10 9 10 11 11 12 14 16 18 18 18 18 18 18 17 16 18 19 19 20 21 21 22 23
12 12 13 15 16 18 19 18 17 18 20 21 21 23 25 26 28 29 31 33 33 32 30 28 25 22 21 18 15 12 12 14 15 15 13 14 15 16 17 18 17 17 17 19 19 18 15 15 14 12 11 11 11 11 12 14 15 17 17 18 18 19 19 19 19 18 18 17 17 18 20 22 25 27
15 15 15 16 17 17 17 17 17 19 20 21 22 24 26 27 29 30 32 34 35 34 32 29 25 22 20 19 17 14 11 11 13 13 12 12 13 14 16 18 18 17 17 19 21 20 18 17 16 13 11 10 10 11 13 15 16 17 17 18 19 19 19 19 20 21 20 19 17 17 19 22 24 26
Wind_Direction
323 308 297 292 292 293 286 278 273 271 267 264 266 266 262 260 260 263 264 254 250 248 238 234 237 237 237 237 236 238 242 244 244 245 245 247 250 252 253 253 253 253 253 248 242 241 241 240 240 241 242 242 242 243 244 245 247 247 246 246 246 246 246 247 247 247 246 245 245 246 248 250 251 252
337 328 317 306 301 299 293 286 284 283 277 269 266 263 257 254 252 254 260 259 256 252 243 239 238 236 236 237 236 235 238 242 243 243 243 243 245 247 250 251 252 253 254 250 245 242 241 241 241 241 242 242 242 242 242 243 244 245 245 244 244 244 245 246 246 246 246 246 247 249 251 253 255 256
345 343 339 329 321 316 307 299 295 291 288 281 274 268 263 259 255 251 253 257 257 252 249 246 240 237 237 237 237 236 236 239 242 242 243 243 243 246 248 248 249 251 251 251 248 243 241 241 242 242 242 242 242 241 241 241 242 243 244 244 243 243 244 245 246 246 247 249 250 251 253 254 256 257
348 350 352 347 340 333 323 318 309 293 287 284 277 273 270 264 258 251 247 253 258 256 254 253 246 242 242 238 236 236 235 237 241 242 242 242 243 245 247 248 248 248 249 250 249 246 242 242 244 245 245 244 243 242 242 242 242 243 243 244 244 244 244 245 247 247 248 250 251 253 254 254 255 256
339 341 344 343 341 338 333 335 330 308 293 284 276 271 268 263 257 252 249 255 263 261 254 253 251 250 248 242 237 236 236 238 240 242 241 241 243 246 248 249 249 247 246 247 248 247 245 244 246 248 249 248 245 244 243 243 243 243 244 244 245 245 246 246 248 249 251 252 253 254 254 255 255 255
329 327 328 328 326 326 329 336 340 331 315 293 279 275 273 271 263 256 255 260 267 267 261 257 258 258 254 246 241 239 241 244 247 247 245 244 246 247 247 249 249 247 245 244 244 245 245 244 244 245 247 248 247 245 244 243 243 244 244 244 245 246 247 247 248 249 250 251 253 253 254 254 255 255
323 321 320 319 317 314 316 325 336 339 332 314 294 290 289 283 273 264 261 264 268 272 271 266 264 262 259 254 250 247 246 248 250 250 246 245 246 246 246 247 248 248 247 244 242 242 244 244 244 244 245 244 244 244 243 243 243 244 245 245 245 246 246 247 247 247 248 249 251 252 253 253 254 255
318 316 314 313 314 310 308 311 318 331 335 325 309 303 298 290 282 273 268 266 268 274 276 273 268 266 263 260 257 254 250 247 247 246 244 243 244 244 244 245 246 247 247 246 244 243 243 244 244 245 245 243 241 239 239 241 242 243 245 245 246 246 247 247 247 247 246 247 248 249 251 252 253 254
316 313 309 306 307 306 304 304 302 309 320 319 314 311 306 296 287 278 273 269 268 272 274 274 272 270 265 261 258 255 252 249 247 246 246 245 244 244 244 244 245 245 245 246 246 245 244 245 246 246 245 243 240 237 236 237 239 242 245 246 246 247 247 247 247 248 247 247 247 247 249 250 252 253
313 310 306 301 300 299 296 296 299 302 305 305 306 308 309 304 292 281 277 276 272 270 272 273 272 271 266 261 257 254 255 254 249 247 247 246 244 243 242 243 244 244 245 245 245 245 246 247 249 248 245 242 239 236 236 237 237 239 243 246 246 246 247 247 248 248 248 248 247 247 248 249 250 253
308 304 302 300 298 296 292 293 300 305 303 298 296 299 304 305 297 285 280 281 277 272 271 271 271 270 268 264 259 255 254 252 246 243 243 243 241 240 240 240 241 243 245 245 244 245 247 249 251 250 246 241 236 235 237 240 240 239 241 244 245 246 246 246 247 248 248 248 248 247 247 248 249 251
304 300 298 299 301 303 302 299 299 299 299 297 296 300 304 302 297 291 285 284 281 275 272 271 271 272 271 267 263 259 254 248 243 242 244 245 244 242 241 240 240 242 244 245 246 246 247 249 249 246 243 238 234 234 237 241 242 241 241 242 244 245 245 245 246 247 248 248 248 247 246 247 248 250
304 300 299 301 306 309 305 299 293 292 295 297 297 301 304 302 299 295 291 287 283 280 280 276 273 271 270 269 266 260 255 250 247 247 250 251 249 247 245 243 241 242 243 246 248 247 247 247 245 241 238 234 232 233 236 238 240 241 241 242 243 244 244 244 245 246 247 248 248 247 247 247 248 250
305 306 307 309 312 313 309 303 300 301 303 303 300 299 301 302 299 294 290 285 280 280 281 279 274 270 267 267 267 265 262 258 254 251 250 251 249 246 245 244 240 238 240 244 246 246 244 243 240 238 239 237 233 234 236 237 239 240 241 243 245 245 246 246 246 247 248 248 249 248 248 248 249 250
312 313 315 316 315 316 317 313 310 311 312 312 307 298 294 296 296 292 288 284 280 279 279 276 273 271 270 270 270 270 269 265 262 259 255 253 250 245 243 244 241 237 238 243 247 247 244 242 242 243 243 240 236 236 238 239 241 243 245 247 248 249 248 248 249 250 250 250 250 250 250 250 250 250
315 317 318 319 318 319 320 316 312 312 312 313 309 295 285 286 290 289 286 286 285 283 281 277 272 270 272 274 274 272 270 267 263 261 257 253 250 247 245 246 245 243 241 245 250 251 248 246 246 246 244 241 239 240 241 241 241 243 247 251 252 252 252 252 252 253 253 252 252 251 251 251 251 252
311 313 314 316 317 317 315 312 309 305 302 302 301 295 285 281 284 283 280 282 284 282 281 280 277 273 273 276 275 272 270 269 264 260 257 252 249 250 251 251 251 251 249 249 252 253 251 248 248 247 245 244 244 245 245 245 244 244 247 250 252 253 254 254 254 254 254 254 254 253 252 253 253 252
303 305 306 310 313 316 316 314 308 301 296 293 294 294 290 287 288 287 281 277 279 281 280 278 278 277 277 278 276 269 263 265 266 263 260 257 256 255 256 255 255 254 251 249 252 254 251 249 249 248 246 246 247 247 248 248 248 249 250 251 253 254 253 253 252 251 253 254 253 252 253 254 255 253
293 294 297 300 304 310 314 306 298 294 292 292 294 294 292 292 294 296 292 282 276 278 280 279 280 281 281 282 284 280 270 268 272 268 263 263 263 260 256 254 251 250 248 245 249 252 250 248 250 250 247 247 247 247 249 250 250 252 252 252 252 252 252 251 249 247 249 250 250 251 254 258 258 255
286 289 292 293 297 304 304 289 281 282 285 288 291 291 288 288 290 292 294 288 279 274 274 275 277 280 282 284 291 296 292 284 284 278 269 265 261 255 253 252 250 248 247 244 245 249 249 248 250 250 248 248 248 248 250 251 251 251 251 251 251 250 249 249 247 245 245 247 249 252 255 257 257 256
294 296 298 304 309 308 299 288 285 287 288 288 290 289 287 285 284 283 284 281 276 273 272 273 274 276 279 284 289 293 293 291 292 287 279 272 263 257 255 254 253 251 249 247 247 250 250 249 251 251 250 251 252 251 252 253 254 254 253 251 251 250 249 249 248 247 246 247 249 251 252 252 252 254
328 322 328 346 342 327 315 306 303 305 306 302 297 293 290 287 283 280 279 277 274 271 270 270 273 274 276 279 283 286 287 288 287 284 283 282 277 270 263 260 260 260 257 253 252 254 252 250 252 253 253 255 256 255 254 255 256 255 254 252 252 253 253 252 250 249 248 247 248 249 249 249 250 250
353 359 8 8 360 350 344 337 327 323 323 320 314 308 303 300 294 287 283 282 280 276 271 270 271 273 277 280 283 284 282 281 280 279 278 277 278 278 274 269 268 267 262 256 253 255 254 252 253 254 254 257 260 258 256 256 254 253 253 254 256 257 256 255 252 250 249 247 247 248 249 249 250 250
2 11 9 3 2 357 351 352 354 345 331 322 322 322 321 318 313 307 301 294 288 283 281 280 280 282 284 287 288 286 282 277 273 271 271 273 273 273 273 271 269 267 266 264 259 258 256 255 256 257 256 259 261 261 258 256 254 253 253 255 257 258 257 255 253 251 250 250 251 252 252 251 250 249
8 10 1 350 345 340 338 341 344 344 340 330 326 326 323 318 315 314 313 305 294 288 286 286 289 293 294 293 290 286 280 274 269 266 267 271 272 268 268 268 266 264 266 270 267 262 261 261 261 260 258 258 259 260 260 258 257 256 256 256 259 260 259 257 255 254 253 254 254 254 254 253 251 249
11 4 351 342 335 328 328 329 329 331 332 326 320 317 312 307 307 312 315 311 300 292 289 288 293 302 307 305 299 289 278 270 266 264 266 270 272 269 270 272 271 267 268 272 271 265 262 261 261 261 260 258 259 262 262 260 258 256 255 256 258 260 259 258 259 259 258 257 255 254 255 257 256 253
13 357 343 341 337 327 325 327 326 326 325 320 316 314 312 312 311 311 315 313 306 298 294 292 290 295 305 311 310 306 297 284 274 268 267 271 272 272 275 279 279 275 273 273 270 265 261 259 258 260 262 259 259 261 262 261 259 257 255 256 257 258 257 257 257 258 258 257 257 256 257 258 259 258
9 352 343 345 343 339 338 337 334 333 334 333 332 331 329 324 318 316 320 321 316 307 299 293 289 287 292 302 306 312 306 284 273 270 269 270 271 272 276 282 283 279 278 277 271 265 264 261 257 258 262 260 258 258 260 261 261 260 260 261 261 259 257 256 256 256 256 255 255 256 257 258 258 259
0 352 355 359 2 5 5 2 358 358 1 2 356 349 346 344 340 339 341 342 337 328 315 303 294 286 283 282 280 281 279 269 270 271 270 268 268 268 270 274 275 273 275 278 274 265 263 261 258 260 265 265 262 259 259 261 263 263 264 265 265 262 259 257 256 255 255 256 256 256 257 258 258 259
3 7 16 21 28 31 29 28 29 27 26 24 17 11 9 10 11 9 2 356 353 351 346 338 325 308 293 279 261 255 263 270 273 272 267 265 265 266 265 262 261 264 271 277 276 268 263 262 262 265 268 267 264 259 256 260 264 265 264 263 263 263 260 258 258 258 257 257 258 258 258 258 258 258
13 23 33 40 46 46 44 46 47 42 38 35 32 31 30 29 30 28 21 12 6 1 357 352 349 342 327 307 284 266 263 263 259 256 257 261 262 260 256 252 252 260 273 282 277 267 262 260 260 263 266 267 267 263 260 261 263 264 263 261 261 263 263 262 264 263 262 262 262 261 259 257 256 255
19 31 43 50 53 50 45 46 48 48 45 42 40 39 38 35 34 32 29 25 20 15 9 0 354 348 336 327 323 316 307 303 289 261 253 256 265 256 244 242 253 266 281 290 284 267 258 256 255 254 254 258 263 266 266 265 264 264 263 263 263 264 264 265 266 265 265 267 266 264 262 259 256 254
24 32 39 41 40 38 37 36 40 45 46 44 43 43 41 38 34 31 26 23 22 19 13 8 3 0 355 348 342 334 330 341 349 331 298 307 348 354 245 232 258 286 303 313 307 281 263 259 257 253 248 248 253 258 261 262 263 264 267 270 272 271 270 269 268 266 265 266 266 265 263 261 258 256
33 35 36 36 34 32 31 29 31 38 43 44 43 42 41 38 36 34 31 27 25 22 18 15 14 12 11 7 356 348 345 349 354 347 334 332 346 3 13 6 329 320 327 332 331 310 285 273 267 262 257 253 252 252 256 262 266 270 274 276 276 274 272 272 273 271 269 268 268 267 266 264 261 259
36 37 36 37 36 35 35 32 30 35 43 43 40 39 39 37 34 33 31 28 26 24 23 21 18 14 14 15 11 3 356 353 355 359 351 337 332 347 4 11 7 357 348 344 342 335 312 293 284 284 286 277 262 254 254 263 272 279 282 281 278 275 272 272 274 275 273 269 267 268 270 269 265 261
34 36 35 36 36 35 35 35 35 39 42 39 36 35 34 32 31 29 27 26 25 26 25 25 23 19 16 16 17 14 6 0 360 3 5 359 342 336 348 359 1 2 3 359 353 343 327 315 305 301 303 306 296 279 264 263 277 289 291 288 284 280 277 275 274 273 271 268 266 267 270 270 268 266
31 32 32 33 34 34 33 32 34 37 36 33 31 30 28 26 26 26 24 24 24 24 24 25 25 24 22 20 19 19 18 15 12 9 10 13 6 355 349 345 345 351 359 4 6 358 343 335 332 323 317 320 318 304 285 271 267 281 296 298 290 280 276 274 272 271 269 268 268 269 270 270 269 268
25 25 26 27 29 31 30 28 28 29 29 26 26 25 23 22 22 22 22 23 24 23 22 22 22 23 24 24 23 23 24 25 24 21 18 15 12 9 5 355 347 348 349 351 1 5 353 340 338 341 338 334 327 313 299 287 274 265 289 305 302 291 284 280 277 274 272 270 270 269 269 270 270 270
20 19 19 20 22 24 26 24 22 21 20 19 19 20 20 20 20 19 19 21 22 22 21 20 18 19 21 24 26 28 28 28 26 24 21 17 15 13 9 3 357 355 352 348 351 355 352 342 336 338 337 331 322 311 303 298 291 286 292 302 302 298 294 290 285 281 278 276 275 272 269 268 268 268
16 16 18 18 18 17 18 18 16 13 11 11 13 15 14 15 16 16 16 16 18 19 20 19 16 14 15 19 22 26 28 29 28 26 22 19 20 19 13 7 4 3 2 359 356 354 356 354 343 332 326 319 308 296 292 292 291 289 289 289 289 294 297 295 289 284 279 277 277 277 275 274 271 267
15 17 19 18 15 12 11 10 10 8 5 5 7 8 6 6 8 9 10 11 12 14 16 17 16 13 12 13 16 19 22 24 26 27 24 20 21 22 18 12 8 7 5 2 357 355 354 350 335 317 308 304 297 291 290 295 297 298 297 292 287 287 292 292 288 283 277 273 274 275 275 277 276 273
21 21 18 14 11 9 8 8 8 5 1 0 1 1 358 357 358 360 2 5 7 8 10 12 13 13 11 10 10 14 16 18 21 24 24 22 20 19 19 16 12 10 8 3 358 353 346 336 324 309 302 309 318 321 326 331 328 323 321 314 302 292 288 287 286 283 279 276 274 273 272 274 278 279
18 17 11 6 4 3 3 4 4 0 357 356 356 354 351 350 350 352 354 356 359 1 3 5 6 9 10 8 5 5 9 13 15 15 18 22 21 18 17 15 12 10 8 3 358 353 344 337 332 324 319 331 346 350 348 346 341 338 336 332 323 310 298 290 286 282 279 277 276 274 271 269 270 272
2 359 357 355 355 356 357 358 358 356 353 352 350 348 346 346 347 347 348 349 351 353 355 357 358 2 5 5 3 359 360 6 10 9 9 14 16 15 14 11 8 8 8 3 357 354 350 347 346 344 343 348 355 357 353 348 344 342 341 339 336 329 317 306 298 291 282 276 276 275 270 264 262 264
351 349 349 349 350 351 351 352 353 354 351 348 346 345 344 344 344 344 343 344 344 345 347 350 351 354 358 360 359 356 350 352 358 1 3 6 8 10 11 8 5 5 6 2 357 356 356 354 352 351 351 353 356 359 358 351 344 338 336 337 339 338 333 324 316 307 298 290 285 280 273 266 263 263